QPF
0.00 0.00 0.00 0.00 0.00 0.00 0.00 0.00 0.00 0.01 0.01 0.01 0.01 0.00 0.00 0.00 0.01 0.01 0.01 0.01 0.01 0.01 0.01 0.01 0.01 0.01 0.02 0.02 0.02 0.02 0.02 0.02 0.02 0.02 0.01 0.01 0.01 0.01 0.01 0.02 0.03 0.03 0.04 0.06
0.01 0.00 0.00 0.00 0.00 0.01 0.01 0.01 0.01 0.00 0.01 0.01 0.01 0.01 0.00 0.00 0.01 0.01 0.01 0.01 0.01 0.01 0.01 0.01 0.01 0.01 0.01 0.01 0.02 0.03 0.03 0.02 0.02 0.02 0.02 0.01 0.01 0.02 0.02 0.03 0.03 0.03 0.03 0.04
0.01 0.01 0.00 0.01 0.01 0.01 0.01 0.01 0.01 0.00 0.01 0.01 0.01 0.01 0.00 0.00 0.01 0.01 0.02 0.02 0.02 0.02 0.01 0.01 0.01 0.01 0.01 0.01 0.01 0.02 0.02 0.03 0.02 0.02 0.02 0.01 0.01 0.02 0.03 0.04 0.03 0.03 0.02 0.02
0.01 0.01 0.01 0.01 0.01 0.01 0.01 0.00 0.00 0.00 0.00 0.01 0.01 0.01 0.00 0.00 0.01 0.01 0.02 0.02 0.02 0.01 0.01 0.01 0.01 0.00 0.00 0.01 0.01 0.01 0.02 0.03 0.02 0.02 0.02 0.02 0.02 0.02 0.02 0.03 0.03 0.02 0.03 0.03
0.01 0.01 0.01 0.01 0.02 0.02 0.01 0.01 0.00 0.00 0.00 0.00 0.00 0.01 0.01 0.01 0.01 0.01 0.02 0.02 0.02 0.02 0.01 0.01 0.01 0.01 0.01 0.01 0.01 0.02 0.02 0.03 0.03 0.03 0.03 0.02 0.01 0.02 0.03 0.03 0.04 0.04 0.04 0.04
0.02 0.02 0.01 0.01 0.01 0.01 0.01 0.01 0.00 0.00 0.00 0.01 0.01 0.01 0.01 0.01 0.01 0.01 0.02 0.03 0.03 0.03 0.03 0.02 0.02 0.02 0.03 0.03 0.03 0.03 0.03 0.03 0.03 0.03 0.03 0.03 0.02 0.02 0.03 0.03 0.04 0.05 0.04 0.03
0.02 0.03 0.02 0.00 0.01 0.01 0.02 0.02 0.00 0.00 0.00 0.01 0.01 0.01 0.01 0.01 0.01 0.02 0.02 0.02 0.03 0.03 0.03 0.02 0.02 0.02 0.03 0.06 0.07 0.06 0.04 0.03 0.03 0.03 0.03 0.03 0.02 0.02 0.01 0.02 0.02 0.03 0.04 0.04
0.02 0.02 0.02 0.01 0.01 0.02 0.02 0.01 0.00 0.00 0.01 0.01 0.01 0.01 0.01 0.01 0.02 0.02 0.02 0.02 0.02 0.02 0.02 0.02 0.02 0.02 0.02 0.05 0.06 0.05 0.04 0.03 0.02 0.03 0.05 0.04 0.03 0.02 0.01 0.01 0.01 0.02 0.02 0.03
0.02 0.02 0.01 0.01 0.01 0.01 0.02 0.02 0.01 0.01 0.00 0.00 0.01 0.01 0.01 0.01 0.02 0.02 0.02 0.02 0.01 0.01 0.01 0.01 0.02 0.02 0.03 0.05 0.06 0.05 0.05 0.04 0.04 0.03 0.03 0.06 0.04 0.02 0.02 0.02 0.02 0.02 0.02 0.03
0.01 0.01 0.01 0.01 0.01 0.00 0.01 0.02 0.02 0.01 0.00 0.00 0.00 0.01 0.01 0.01 0.01 0.02 0.02 0.01 0.01 0.01 0.01 0.01 0.02 0.03 0.03 0.04 0.05 0.04 0.05 0.05 0.03 0.04 0.04 0.05 0.04 0.03 0.03 0.02 0.02 0.02 0.02 0.05
0.01 0.01 0.01 0.01 0.01 0.01 0.01 0.01 0.02 0.01 0.01 0.00 0.00 0.01 0.02 0.02 0.01 0.02 0.02 0.01 0.01 0.01 0.01 0.01 0.01 0.02 0.02 0.03 0.04 0.04 0.04 0.04 0.04 0.04 0.05 0.04 0.05 0.05 0.03 0.02 0.02 0.02 0.02 0.02
0.02 0.02 0.02 0.02 0.01 0.01 0.02 0.03 0.03 0.03 0.02 0.01 0.01 0.02 0.02 0.02 0.03 0.02 0.02 0.01 0.02 0.02 0.01 0.01 0.02 0.01 0.01 0.02 0.02 0.03 0.03 0.03 0.04 0.04 0.05 0.05 0.05 0.06 0.07 0.05 0.03 0.02 0.01 0.02
0.01 0.01 0.01 0.02 0.02 0.03 0.03 0.04 0.04 0.04 0.03 0.02 0.02 0.02 0.02 0.02 0.03 0.02 0.02 0.02 0.02 0.01 0.01 0.01 0.01 0.01 0.01 0.01 0.01 0.02 0.03 0.03 0.03 0.03 0.03 0.04 0.05 0.06 0.06 0.05 0.04 0.02 0.02 0.02
0.01 0.01 0.02 0.02 0.03 0.03 0.03 0.04 0.04 0.04 0.03 0.03 0.03 0.02 0.02 0.03 0.03 0.02 0.02 0.01 0.01 0.01 0.01 0.01 0.01 0.01 0.01 0.01 0.01 0.01 0.01 0.02 0.02 0.02 0.02 0.02 0.04 0.05 0.06 0.06 0.05 0.04 0.03 0.04
0.01 0.01 0.02 0.03 0.03 0.02 0.03 0.04 0.04 0.03 0.03 0.02 0.03 0.03 0.02 0.03 0.03 0.02 0.02 0.01 0.01 0.01 0.01 0.01 0.01 0.01 0.01 0.01 0.02 0.02 0.02 0.02 0.02 0.02 0.02 0.03 0.03 0.04 0.06 0.08 0.08 0.07 0.06 0.06
0.01 0.01 0.02 0.03 0.03 0.02 0.03 0.03 0.03 0.03 0.02 0.02 0.03 0.03 0.03 0.03 0.02 0.02 0.02 0.02 0.02 0.02 0.02 0.01 0.01 0.01 0.01 0.02 0.02 0.02 0.02 0.01 0.01 0.02 0.02 0.03 0.04 0.05 0.06 0.07 0.09 0.08 0.08 0.08
0.01 0.01 0.03 0.03 0.03 0.02 0.02 0.02 0.02 0.03 0.02 0.03 0.03 0.02 0.02 0.02 0.02 0.03 0.03 0.02 0.02 0.02 0.01 0.01 0.01 0.01 0.01 0.02 0.01 0.01 0.02 0.02 0.02 0.03 0.03 0.03 0.03 0.03 0.04 0.06 0.08 0.09 0.09 0.09
0.00 0.02 0.03 0.03 0.04 0.02 0.01 0.01 0.02 0.02 0.02 0.02 0.02 0.01 0.02 0.03 0.03 0.03 0.02 0.02 0.02 0.02 0.01 0.01 0.01 0.01 0.01 0.02 0.01 0.01 0.01 0.02 0.02 0.02 0.03 0.03 0.02 0.02 0.02 0.03 0.05 0.08 0.09 0.10
0.01 0.02 0.02 0.03 0.02 0.02 0.01 0.01 0.01 0.01 0.01 0.01 0.01 0.01 0.02 0.02 0.02 0.02 0.02 0.02 0.02 0.01 0.01 0.01 0.02 0.02 0.01 0.02 0.02 0.02 0.01 0.01 0.02 0.02 0.02 0.02 0.02 0.02 0.02 0.02 0.04 0.06 0.09 0.08
0.00 0.01 0.02 0.02 0.01 0.01 0.01 0.01 0.01 0.01 0.01 0.01 0.01 0.01 0.01 0.01 0.01 0.01 0.01 0.02 0.02 0.01 0.01 0.02 0.02 0.02 0.01 0.01 0.02 0.02 0.02 0.03 0.02 0.02 0.02 0.02 0.02 0.02 0.02 0.02 0.03 0.05 0.06 0.06
0.00 0.01 0.01 0.02 0.02 0.01 0.01 0.01 0.01 0.01 0.01 0.01 0.01 0.01 0.01 0.01 0.01 0.02 0.02 0.02 0.02 0.02 0.01 0.02 0.02 0.02 0.02 0.01 0.01 0.02 0.02 0.03 0.04 0.03 0.02 0.02 0.02 0.02 0.02 0.02 0.02 0.04 0.05 0.05
0.00 0.00 0.01 0.01 0.01 0.02 0.02 0.01 0.01 0.01 0.01 0.01 0.01 0.01 0.02 0.02 0.02 0.02 0.02 0.02 0.02 0.02 0.02 0.02 0.02 0.02 0.02 0.02 0.02 0.02 0.02 0.03 0.05 0.05 0.04 0.03 0.03 0.02 0.02 0.02 0.02 0.04 0.05 0.07
0.00 0.00 0.00 0.01 0.01 0.02 0.02 0.01 0.01 0.01 0.01 0.02 0.02 0.02 0.02 0.03 0.03 0.02 0.02 0.01 0.01 0.02 0.02 0.02 0.02 0.01 0.02 0.02 0.02 0.03 0.03 0.04 0.04 0.05 0.06 0.04 0.03 0.02 0.02 0.01 0.02 0.04 0.05 0.05
0.01 0.01 0.01 0.01 0.01 0.02 0.03 0.02 0.01 0.01 0.01 0.02 0.03 0.03 0.02 0.03 0.02 0.02 0.02 0.02 0.02 0.02 0.02 0.03 0.03 0.03 0.03 0.03 0.03 0.03 0.03 0.03 0.03 0.03 0.05 0.05 0.04 0.03 0.02 0.02 0.03 0.04 0.05 0.04
0.02 0.01 0.01 0.01 0.02 0.03 0.03 0.03 0.02 0.02 0.02 0.03 0.03 0.02 0.02 0.03 0.03 0.02 0.02 0.02 0.02 0.02 0.02 0.02 0.03 0.04 0.04 0.04 0.04 0.04 0.04 0.03 0.03 0.03 0.03 0.04 0.05 0.05 0.04 0.04 0.04 0.04 0.05 0.04
0.02 0.02 0.02 0.02 0.03 0.03 0.03 0.03 0.04 0.04 0.04 0.04 0.03 0.02 0.02 0.02 0.02 0.02 0.02 0.02 0.02 0.02 0.02 0.02 0.02 0.02 0.02 0.03 0.04 0.04 0.04 0.04 0.04 0.03 0.03 0.03 0.03 0.04 0.05 0.04 0.03 0.04 0.05 0.05
0.01 0.01 0.01 0.01 0.02 0.02 0.02 0.03 0.04 0.04 0.04 0.04 0.04 0.03 0.02 0.02 0.02 0.02 0.03 0.03 0.03 0.03 0.02 0.03 0.02 0.02 0.01 0.02 0.02 0.01 0.02 0.02 0.03 0.03 0.03 0.02 0.02 0.02 0.02 0.03 0.03 0.03 0.04 0.04
MSLP
1010.14 1009.52 1008.93 1008.38 1007.90 1007.48 1007.12 1006.78 1006.44 1006.09 1005.70 1005.28 1004.85 1004.43 1004.06 1003.76 1003.57 1003.50 1003.54 1003.71 1003.96 1004.28 1004.62 1004.97 1005.29 1005.56 1005.77 1005.89 1005.92 1005.86 1005.70 1005.44 1005.09 1004.65 1004.15 1003.59 1003.03 1002.47 1001.97 1001.55 1001.25 1001.10 1001.11 1001.29
1009.96 1009.30 1008.64 1008.05 1007.53 1007.10 1006.76 1006.48 1006.22 1005.97 1005.69 1005.38 1005.04 1004.67 1004.31 1003.98 1003.72 1003.55 1003.48 1003.53 1003.68 1003.91 1004.21 1004.53 1004.85 1005.14 1005.38 1005.53 1005.60 1005.57 1005.43 1005.19 1004.85 1004.43 1003.94 1003.40 1002.84 1002.28 1001.77 1001.33 1000.99 1000.79 1000.74 1000.85
1009.72 1009.06 1008.41 1007.82 1007.32 1006.93 1006.63 1006.42 1006.25 1006.10 1005.93 1005.72 1005.46 1005.14 1004.79 1004.44 1004.11 1003.84 1003.66 1003.58 1003.61 1003.74 1003.95 1004.22 1004.51 1004.79 1005.03 1005.21 1005.30 1005.29 1005.18 1004.96 1004.65 1004.25 1003.78 1003.26 1002.71 1002.17 1001.65 1001.20 1000.84 1000.59 1000.48 1000.53
1009.48 1008.88 1008.29 1007.76 1007.32 1006.98 1006.75 1006.61 1006.52 1006.46 1006.38 1006.25 1006.05 1005.77 1005.42 1005.04 1004.65 1004.29 1003.99 1003.78 1003.68 1003.70 1003.80 1003.99 1004.23 1004.48 1004.71 1004.90 1005.01 1005.02 1004.94 1004.75 1004.47 1004.10 1003.66 1003.17 1002.64 1002.12 1001.62 1001.16 1000.78 1000.51 1000.36 1000.36
1009.33 1008.82 1008.32 1007.87 1007.50 1007.23 1007.06 1006.97 1006.94 1006.93 1006.90 1006.82 1006.65 1006.39 1006.04 1005.63 1005.18 1004.74 1004.33 1004.01 1003.79 1003.68 1003.69 1003.79 1003.96 1004.17 1004.38 1004.56 1004.68 1004.72 1004.67 1004.52 1004.28 1003.95 1003.56 1003.10 1002.62 1002.13 1001.65 1001.21 1000.84 1000.56 1000.39 1000.35
1009.29 1008.88 1008.48 1008.11 1007.81 1007.59 1007.45 1007.38 1007.35 1007.35 1007.32 1007.24 1007.08 1006.81 1006.45 1006.01 1005.52 1005.01 1004.53 1004.11 1003.79 1003.58 1003.49 1003.51 1003.62 1003.79 1003.98 1004.16 1004.29 1004.36 1004.35 1004.25 1004.06 1003.79 1003.44 1003.05 1002.62 1002.17 1001.74 1001.34 1000.99 1000.73 1000.56 1000.50
1009.35 1009.02 1008.69 1008.39 1008.13 1007.91 1007.76 1007.66 1007.59 1007.53 1007.46 1007.35 1007.15 1006.87 1006.49 1006.03 1005.51 1004.97 1004.44 1003.96 1003.58 1003.30 1003.15 1003.11 1003.17 1003.31 1003.49 1003.67 1003.83 1003.93 1003.97 1003.92 1003.78 1003.57 1003.29 1002.96 1002.59 1002.21 1001.84 1001.50 1001.20 1000.97 1000.83 1000.78
1009.44 1009.17 1008.88 1008.60 1008.32 1008.07 1007.84 1007.65 1007.49 1007.34 1007.18 1007.00 1006.75 1006.43 1006.04 1005.58 1005.07 1004.53 1004.01 1003.52 1003.12 1002.83 1002.65 1002.58 1002.62 1002.74 1002.92 1003.11 1003.29 1003.43 1003.51 1003.51 1003.43 1003.28 1003.07 1002.80 1002.51 1002.20 1001.90 1001.63 1001.40 1001.23 1001.13 1001.12
1009.50 1009.24 1008.95 1008.63 1008.29 1007.94 1007.60 1007.27 1006.97 1006.69 1006.42 1006.14 1005.84 1005.50 1005.12 1004.68 1004.22 1003.73 1003.26 1002.83 1002.47 1002.20 1002.03 1001.97 1002.01 1002.14 1002.32 1002.52 1002.72 1002.88 1002.99 1003.04 1003.01 1002.91 1002.75 1002.55 1002.32 1002.09 1001.87 1001.67 1001.52 1001.43 1001.40 1001.44
1009.49 1009.19 1008.84 1008.43 1007.97 1007.48 1006.98 1006.49 1006.03 1005.60 1005.21 1004.85 1004.51 1004.17 1003.82 1003.46 1003.08 1002.70 1002.33 1002.00 1001.72 1001.52 1001.40 1001.38 1001.45 1001.58 1001.76 1001.97 1002.17 1002.35 1002.47 1002.53 1002.53 1002.46 1002.35 1002.19 1002.02 1001.85 1001.70 1001.58 1001.52 1001.50 1001.55 1001.65
1009.37 1009.00 1008.55 1008.01 1007.40 1006.74 1006.06 1005.40 1004.77 1004.20 1003.71 1003.29 1002.93 1002.62 1002.35 1002.09 1001.85 1001.61 1001.39 1001.20 1001.04 1000.94 1000.90 1000.93 1001.02 1001.16 1001.34 1001.54 1001.72 1001.88 1001.99 1002.04 1002.03 1001.97 1001.87 1001.74 1001.61 1001.49 1001.40 1001.35 1001.36 1001.42 1001.54 1001.70
1009.19 1008.72 1008.13 1007.45 1006.67 1005.83 1004.97 1004.14 1003.37 1002.69 1002.13 1001.68 1001.35 1001.11 1000.95 1000.84 1000.76 1000.70 1000.65 1000.61 1000.59 1000.60 1000.64 1000.71 1000.83 1000.97 1001.12 1001.28 1001.42 1001.53 1001.60 1001.61 1001.58 1001.50 1001.39 1001.27 1001.16 1001.07 1001.02 1001.02 1001.08 1001.20 1001.38 1001.59
1009.00 1008.41 1007.69 1006.85 1005.91 1004.91 1003.90 1002.93 1002.06 1001.31 1000.72 1000.29 1000.02 999.88 999.85 999.90 1000.00 1000.12 1000.24 1000.36 1000.46 1000.57 1000.67 1000.78 1000.89 1001.00 1001.12 1001.22 1001.30 1001.34 1001.35 1001.31 1001.23 1001.12 1000.99 1000.86 1000.75 1000.68 1000.66 1000.69 1000.79 1000.94 1001.15 1001.40
1008.88 1008.18 1007.33 1006.35 1005.27 1004.14 1003.01 1001.96 1001.03 1000.26 999.69 999.31 999.13 999.11 999.22 999.43 999.68 999.96 1000.22 1000.46 1000.67 1000.84 1000.97 1001.08 1001.17 1001.24 1001.30 1001.33 1001.33 1001.31 1001.25 1001.16 1001.03 1000.89 1000.75 1000.61 1000.50 1000.44 1000.43 1000.48 1000.59 1000.76 1000.99 1001.24
1008.86 1008.07 1007.12 1006.04 1004.86 1003.65 1002.46 1001.37 1000.43 999.69 999.16 998.86 998.78 998.87 999.11 999.44 999.82 1000.21 1000.57 1000.89 1001.14 1001.33 1001.46 1001.54 1001.59 1001.60 1001.59 1001.55 1001.49 1001.40 1001.29 1001.16 1001.02 1000.86 1000.71 1000.58 1000.48 1000.43 1000.43 1000.49 1000.61 1000.78 1001.00 1001.24
1008.96 1008.11 1007.11 1005.97 1004.74 1003.50 1002.31 1001.23 1000.33 999.64 999.18 998.96 998.97 999.16 999.49 999.90 1000.34 1000.78 1001.17 1001.50 1001.75 1001.91 1002.00 1002.04 1002.02 1001.97 1001.90 1001.81 1001.70 1001.58 1001.45 1001.32 1001.18 1001.04 1000.92 1000.81 1000.74 1000.72 1000.74 1000.80 1000.92 1001.08 1001.27 1001.49
1009.14 1008.29 1007.27 1006.12 1004.91 1003.69 1002.54 1001.52 1000.68 1000.07 999.69 999.55 999.62 999.86 1000.22 1000.66 1001.10 1001.52 1001.89 1002.16 1002.35 1002.45 1002.47 1002.44 1002.36 1002.26 1002.14 1002.02 1001.90 1001.79 1001.68 1001.58 1001.49 1001.40 1001.34 1001.29 1001.27 1001.28 1001.32 1001.41 1001.52 1001.66 1001.83 1002.01
1009.36 1008.54 1007.55 1006.46 1005.30 1004.16 1003.09 1002.15 1001.41 1000.87 1000.56 1000.47 1000.58 1000.83 1001.17 1001.56 1001.95 1002.29 1002.56 1002.74 1002.83 1002.84 1002.78 1002.67 1002.54 1002.40 1002.27 1002.15 1002.06 1001.99 1001.94 1001.91 1001.90 1001.90 1001.91 1001.93 1001.98 1002.04 1002.12 1002.22 1002.34 1002.47 1002.61 1002.75
1009.56 1008.80 1007.90 1006.89 1005.83 1004.79 1003.83 1003.01 1002.36 1001.90 1001.65 1001.58 1001.68 1001.89 1002.17 1002.47 1002.74 1002.96 1003.10 1003.16 1003.13 1003.03 1002.89 1002.72 1002.55 1002.40 1002.28 1002.20 1002.16 1002.17 1002.20 1002.27 1002.35 1002.44 1002.54 1002.65 1002.77 1002.88 1003.00 1003.12 1003.24 1003.37 1003.49 1003.61
1009.71 1009.03 1008.23 1007.34 1006.41 1005.49 1004.66 1003.95 1003.38 1002.99 1002.78 1002.71 1002.77 1002.91 1003.09 1003.26 1003.40 1003.48 1003.48 1003.40 1003.26 1003.07 1002.86 1002.65 1002.47 1002.33 1002.24 1002.22 1002.25 1002.34 1002.47 1002.62 1002.80 1002.98 1003.16 1003.34 1003.51 1003.67 1003.82 1003.96 1004.09 1004.21 1004.32 1004.42
1009.78 1009.21 1008.52 1007.75 1006.95 1006.17 1005.46 1004.85 1004.37 1004.03 1003.83 1003.74 1003.74 1003.80 1003.86 1003.91 1003.90 1003.84 1003.71 1003.52 1003.28 1003.02 1002.77 1002.55 1002.38 1002.27 1002.24 1002.28 1002.38 1002.55 1002.75 1002.98 1003.22 1003.47 1003.70 1003.92 1004.13 1004.31 1004.48 1004.63 1004.77 1004.89 1005.00 1005.10
1009.81 1009.33 1008.75 1008.10 1007.42 1006.76 1006.15 1005.63 1005.22 1004.92 1004.72 1004.61 1004.55 1004.51 1004.47 1004.40 1004.28 1004.10 1003.87 1003.59 1003.30 1003.01 1002.75 1002.54 1002.40 1002.33 1002.36 1002.45 1002.62 1002.84 1003.09 1003.36 1003.63 1003.90 1004.15 1004.38 1004.59 1004.78 1004.95 1005.10 1005.24 1005.37 1005.49 1005.60
1009.81 1009.41 1008.92 1008.36 1007.78 1007.22 1006.71 1006.26 1005.90 1005.62 1005.42 1005.28 1005.17 1005.06 1004.93 1004.77 1004.57 1004.31 1004.02 1003.71 1003.40 1003.11 1002.87 1002.70 1002.60 1002.59 1002.66 1002.81 1003.01 1003.25 1003.52 1003.79 1004.06 1004.31 1004.54 1004.75 1004.93 1005.10 1005.26 1005.41 1005.55 1005.69 1005.83 1005.97
1009.80 1009.45 1009.01 1008.53 1008.03 1007.54 1007.10 1006.71 1006.38 1006.13 1005.92 1005.76 1005.61 1005.46 1005.28 1005.07 1004.82 1004.54 1004.23 1003.93 1003.64 1003.38 1003.19 1003.07 1003.03 1003.07 1003.18 1003.35 1003.56 1003.80 1004.05 1004.29 1004.52 1004.73 1004.92 1005.08 1005.23 1005.37 1005.51 1005.66 1005.81 1005.96 1006.12 1006.30
1009.77 1009.44 1009.04 1008.61 1008.16 1007.72 1007.33 1006.98 1006.69 1006.45 1006.25 1006.08 1005.92 1005.75 1005.55 1005.33 1005.08 1004.81 1004.53 1004.26 1004.02 1003.83 1003.70 1003.64 1003.65 1003.73 1003.87 1004.05 1004.26 1004.48 1004.69 1004.89 1005.06 1005.22 1005.35 1005.47 1005.58 1005.70 1005.83 1005.98 1006.14 1006.32 1006.52 1006.73
1009.69 1009.36 1008.98 1008.57 1008.16 1007.77 1007.41 1007.10 1006.84 1006.62 1006.44 1006.28 1006.13 1005.96 1005.78 1005.58 1005.36 1005.13 1004.90 1004.69 1004.52 1004.40 1004.34 1004.34 1004.40 1004.52 1004.68 1004.87 1005.06 1005.25 1005.42 1005.57 1005.69 1005.80 1005.89 1005.97 1006.07 1006.18 1006.31 1006.48 1006.67 1006.88 1007.12 1007.36
1009.53 1009.19 1008.82 1008.43 1008.05 1007.69 1007.37 1007.10 1006.88 1006.69 1006.54 1006.41 1006.28 1006.14 1005.99 1005.83 1005.66 1005.49 1005.33 1005.19 1005.09 1005.04 1005.04 1005.10 1005.20 1005.35 1005.52 1005.71 1005.89 1006.05 1006.19 1006.31 1006.40 1006.48 1006.55 1006.63 1006.73 1006.86 1007.02 1007.21 1007.44 1007.70 1007.97 1008.25
Thickness
5705 5712 5713 5712 5713 5716 5714 5718 5716 5721 5721 5724 5724 5723 5722 5722 5722 5720 5718 5718 5717 5716 5716 5716 5715 5714 5714 5713 5711 5710 5709 5707 5706 5705 5704 5702 5700 5698 5696 5694 5694 5692 5691 5690
5693 5702 5704 5703 5708 5710 5711 5714 5714 5714 5713 5723 5720 5719 5715 5714 5714 5712 5711 5710 5710 5709 5709 5708 5707 5707 5707 5706 5705 5704 5703 5702 5701 5700 5698 5696 5694 5692 5690 5688 5687 5686 5685 5684
5683 5692 5692 5688 5700 5704 5705 5709 5707 5704 5707 5710 5707 5706 5705 5704 5704 5704 5705 5704 5703 5702 5701 5700 5700 5700 5699 5699 5699 5698 5697 5696 5695 5693 5692 5691 5689 5687 5684 5682 5681 5680 5679 5678
5677 5674 5664 5690 5701 5701 5698 5698 5701 5699 5700 5700 5698 5699 5699 5698 5697 5696 5697 5696 5696 5695 5694 5694 5694 5694 5694 5693 5692 5692 5691 5690 5689 5687 5686 5684 5682 5680 5678 5676 5675 5674 5673 5671
5668 5666 5673 5683 5687 5688 5685 5684 5691 5690 5690 5690 5690 5690 5689 5689 5689 5688 5687 5688 5687 5688 5688 5687 5687 5688 5688 5687 5686 5684 5683 5682 5681 5680 5679 5677 5675 5672 5671 5669 5668 5667 5666 5664
5660 5655 5658 5673 5681 5684 5678 5672 5683 5683 5680 5680 5680 5679 5680 5680 5680 5679 5679 5679 5678 5679 5680 5679 5680 5681 5680 5679 5677 5676 5675 5675 5674 5673 5671 5669 5667 5665 5664 5662 5661 5660 5659 5657
5652 5651 5663 5669 5673 5672 5659 5665 5674 5676 5674 5673 5671 5672 5671 5671 5671 5670 5669 5669 5670 5671 5671 5671 5672 5672 5671 5671 5668 5668 5668 5668 5667 5665 5664 5662 5660 5658 5657 5656 5655 5653 5651 5650
5649 5645 5651 5660 5661 5658 5658 5663 5666 5666 5666 5663 5662 5662 5662 5662 5661 5662 5661 5661 5662 5662 5662 5663 5663 5664 5663 5661 5661 5661 5661 5659 5658 5657 5656 5655 5652 5651 5650 5648 5647 5645 5644 5642
5645 5646 5649 5653 5653 5654 5656 5655 5655 5656 5656 5655 5654 5654 5654 5653 5653 5654 5653 5653 5654 5654 5654 5654 5655 5655 5654 5653 5654 5654 5652 5651 5649 5648 5647 5647 5645 5644 5643 5641 5641 5640 5639 5637
5636 5641 5643 5645 5647 5647 5648 5648 5648 5648 5648 5647 5646 5646 5646 5646 5646 5646 5646 5647 5647 5647 5646 5645 5645 5646 5645 5645 5645 5646 5644 5642 5642 5641 5640 5639 5638 5638 5637 5636 5635 5634 5633 5632
5629 5633 5635 5637 5639 5640 5639 5639 5639 5639 5640 5640 5639 5639 5639 5639 5639 5640 5640 5640 5639 5638 5637 5637 5637 5638 5638 5637 5637 5637 5636 5635 5635 5635 5634 5632 5631 5629 5629 5628 5627 5624 5626 5625
5623 5626 5626 5628 5631 5632 5630 5630 5631 5631 5630 5632 5632 5631 5632 5632 5632 5632 5632 5632 5631 5630 5631 5630 5630 5630 5630 5630 5630 5629 5629 5628 5629 5628 5626 5626 5624 5622 5617 5617 5614 5612 5612 5612
5619 5622 5622 5623 5624 5624 5623 5623 5623 5623 5622 5623 5624 5625 5624 5624 5625 5625 5624 5624 5622 5622 5622 5622 5622 5621 5622 5623 5622 5621 5621 5621 5621 5621 5619 5618 5617 5616 5613 5608 5605 5603 5602 5602
5611 5612 5611 5614 5614 5615 5616 5616 5616 5616 5617 5617 5617 5617 5617 5616 5616 5616 5616 5615 5615 5614 5614 5614 5614 5613 5614 5614 5614 5613 5614 5613 5612 5612 5612 5612 5611 5610 5609 5608 5605 5602 5596 5594
5603 5605 5606 5607 5607 5607 5609 5609 5609 5608 5609 5609 5609 5609 5609 5608 5608 5608 5608 5608 5607 5606 5606 5606 5605 5605 5605 5606 5606 5606 5607 5607 5606 5607 5607 5606 5605 5604 5603 5602 5600 5598 5597 5592
5597 5598 5599 5599 5599 5600 5601 5601 5601 5601 5601 5601 5601 5601 5601 5601 5601 5601 5600 5600 5598 5598 5597 5596 5596 5596 5597 5598 5598 5599 5600 5597 5598 5600 5601 5600 5599 5597 5596 5595 5594 5592 5591 5590
5588 5588 5589 5590 5592 5593 5594 5595 5595 5595 5594 5594 5594 5594 5594 5594 5593 5592 5592 5592 5591 5589 5588 5588 5588 5589 5589 5590 5592 5594 5595 5594 5590 5594 5595 5594 5593 5591 5590 5588 5588 5586 5585 5584
5585 5585 5585 5585 5586 5587 5587 5588 5588 5587 5587 5588 5588 5587 5586 5585 5584 5584 5584 5583 5582 5581 5581 5581 5581 5581 5582 5583 5584 5588 5589 5589 5589 5589 5588 5587 5586 5585 5584 5582 5582 5580 5579 5578
5579 5579 5579 5579 5580 5581 5581 5581 5581 5581 5581 5581 5580 5579 5579 5578 5577 5577 5576 5576 5576 5575 5574 5574 5570 5573 5575 5575 5575 5579 5581 5582 5582 5582 5582 5578 5579 5579 5578 5577 5575 5574 5573 5571
5572 5572 5572 5573 5574 5574 5574 5574 5574 5573 5573 5573 5573 5572 5572 5572 5571 5570 5570 5570 5570 5571 5569 5567 5567 5568 5568 5568 5567 5573 5575 5575 5575 5575 5574 5574 5574 5572 5571 5571 5569 5567 5566 5565
5565 5566 5566 5567 5568 5568 5569 5568 5567 5566 5566 5566 5565 5565 5566 5565 5564 5564 5564 5565 5564 5563 5562 5559 5562 5563 5563 5562 5560 5567 5568 5568 5568 5568 5567 5567 5566 5565 5565 5564 5563 5561 5559 5558
5559 5560 5560 5561 5561 5561 5562 5562 5561 5560 5560 5559 5559 5560 5559 5558 5558 5557 5557 5557 5557 5553 5555 5556 5557 5554 5555 5554 5559 5561 5561 5561 5560 5560 5560 5559 5559 5558 5557 5556 5555 5554 5553 5551
5553 5553 5554 5555 5555 5555 5556 5556 5556 5555 5555 5554 5554 5554 5553 5552 5552 5552 5552 5551 5551 5547 5550 5550 5547 5544 5544 5549 5554 5555 5555 5554 5553 5553 5553 5552 5552 5550 5549 5548 5547 5546 5545 5543
5545 5546 5547 5548 5549 5550 5550 5551 5551 5550 5550 5550 5549 5548 5548 5547 5547 5547 5547 5542 5541 5540 5544 5541 5538 5538 5537 5544 5547 5547 5547 5547 5546 5546 5546 5545 5545 5544 5543 5541 5540 5539 5537 5535
5539 5540 5541 5542 5543 5545 5545 5546 5546 5546 5546 5547 5546 5544 5544 5543 5542 5543 5541 5539 5536 5535 5538 5535 5532 5532 5535 5539 5541 5541 5541 5541 5541 5540 5539 5538 5538 5537 5535 5533 5532 5530 5529 5528
5534 5536 5537 5537 5538 5540 5542 5543 5544 5544 5544 5543 5541 5541 5540 5538 5537 5537 5536 5535 5534 5531 5534 5534 5532 5529 5533 5535 5536 5536 5536 5535 5534 5533 5532 5531 5531 5530 5528 5526 5524 5523 5522 5520
5531 5532 5533 5534 5536 5537 5538 5539 5538 5538 5539 5538 5537 5536 5535 5534 5534 5533 5532 5532 5532 5531 5531 5531 5530 5530 5530 5531 5532 5531 5531 5530 5529 5528 5527 5525 5524 5523 5521 5519 5517 5516 5514 5514